Dewpoint
57 57 57 57 57 57 57 57 59 59 59 59 60 60 61 61 60 49 38 46 54 71 72 49 43 44 45 52 49 44 42 39 40 43 50 51 52 55 54 56 56 57 58 59 60
57 56 56 56 56 57 57 57 58 58 59 59 59 60 61 61 56 45 52 68 70 72 43 41 41 41 39 39 39 39 40 42 40 38 47 51 50 52 50 58 58 58 58 59 63
56 56 56 56 56 56 56 57 57 58 58 58 59 59 61 60 43 35 67 69 70 68 48 41 41 40 39 37 38 39 37 38 43 42 48 52 51 49 55 56 58 56 56 57 58
57 56 56 56 56 56 56 56 56 57 57 58 59 60 61 57 24 33 72 71 71 56 41 40 40 39 39 39 39 39 36 38 39 39 42 52 50 52 54 57 58 57 57 57 57
56 57 55 56 56 55 55 56 56 56 57 58 59 60 53 41 33 33 70 68 55 44 37 41 40 40 39 36 30 33 31 35 38 39 37 41 46 50 52 58 58 58 57 57 56
56 57 57 55 56 55 55 55 55 56 57 58 58 60 52 30 31 33 41 46 45 42 41 41 41 41 40 36 30 31 30 31 37 34 35 37 42 50 56 58 58 57 57 57 57
55 55 56 55 55 55 55 55 55 56 57 57 59 57 50 35 34 34 31 36 38 38 40 42 43 40 38 31 34 31 27 29 32 32 32 31 47 47 57 57 57 57 57 58 58
56 55 55 55 55 54 54 55 55 56 57 58 59 54 36 37 35 29 30 29 27 35 40 41 41 36 32 31 32 31 30 28 32 31 35 32 37 44 54 57 57 57 58 59 62
55 56 55 56 54 54 54 55 56 57 58 58 52 48 30 44 35 30 29 26 24 27 33 35 36 32 31 30 29 31 24 29 34 30 32 30 38 48 49 50 55 58 59 62 61
55 54 55 54 55 53 54 55 55 55 55 54 50 40 36 29 26 25 26 25 22 26 34 35 33 32 32 29 27 32 29 29 31 28 43 44 45 48 49 53 55 56 55 55 63
56 55 54 54 53 53 52 48 36 38 43 26 28 37 33 36 28 23 22 20 21 26 31 34 31 30 31 31 31 29 28 30 35 42 45 46 48 47 49 55 57 56 53 53 61
56 56 55 54 53 52 51 46 34 34 31 37 34 34 29 26 20 19 16 16 19 22 32 31 30 31 32 31 29 26 23 20 31 41 45 46 44 47 49 49 51 53 57 54 58
56 56 55 53 53 50 47 43 43 34 31 32 36 29 24 22 21 19 12 14 25 25 29 30 30 31 30 29 27 25 19 18 25 35 44 40 38 42 48 47 51 52 53 55 56
56 55 54 53 50 49 44 41 41 35 30 30 32 31 21 20 14 16 11 19 26 27 28 28 30 29 27 26 24 17 18 19 27 21 27 37 33 41 48 46 50 50 47 52 55
55 55 54 53 49 47 45 42 36 33 27 34 28 24 16 12 14 15 19 27 22 25 27 26 26 26 25 25 23 18 21 23 27 18 31 36 31 38 46 41 45 44 49 51 54
55 54 53 50 50 49 49 47 36 30 28 25 19 11 10 9 10 16 18 27 27 26 25 24 25 23 22 21 21 21 19 17 19 17 15 24 32 40 46 46 49 47 48 52 58
53 52 51 51 47 50 47 36 31 28 30 16 11 9 8 9 10 17 20 21 22 17 17 19 18 18 18 17 15 17 15 15 15 16 21 38 39 41 47 50 52 52 49 55 60
51 50 51 50 51 48 43 33 29 30 27 17 14 8 10 14 13 16 20 19 19 18 16 15 13 15 19 16 14 15 15 15 13 24 35 41 33 41 49 51 53 52 48 57 61
50 50 50 51 51 48 39 33 31 31 28 24 15 13 12 14 14 18 18 17 16 16 14 14 14 17 16 15 14 14 16 17 17 36 40 44 46 50 49 44 46 46 48 58 62
48 50 49 49 49 43 39 36 35 36 31 28 19 13 12 14 10 11 11 14 14 15 15 14 13 14 23 14 17 14 18 16 26 30 34 43 43 44 48 45 46 46 50 55 60
49 48 49 48 41 39 36 37 37 36 31 25 25 13 13 14 11 9 9 11 13 11 15 13 14 11 28 16 17 29 21 29 35 35 36 40 43 45 46 44 47 47 49 54 58
48 45 44 40 35 38 34 34 37 30 31 28 25 27 13 13 10 9 9 10 12 10 10 12 13 20 22 30 31 31 29 35 34 35 38 36 37 47 47 48 50 48 49 55 58
44 45 51 37 31 33 32 30 29 28 28 28 25 26 27 25 20 11 13 14 13 11 10 12 9 14 20 32 31 34 37 33 40 37 36 38 39 50 48 48 49 49 52 56 59
46 46 54 43 35 36 32 33 28 31 31 29 25 31 31 32 29 25 14 17 16 15 50 31 13 12 17 30 34 33 36 34 28 29 30 35 39 44 46 48 49 49 56 58 62
47 47 53 46 46 45 46 44 42 32 32 33 25 28 30 29 33 35 29 19 23 48 26 18 22 35 37 35 33 34 36 36 35 35 30 31 38 40 43 46 47 48 59 62 60
45 49 53 50 48 44 45 43 40 35 34 30 25 27 39 37 37 37 38 37 30 28 23 24 31 40 36 37 36 39 39 38 39 37 35 41 41 44 48 53 55 56 61 61 62
49 49 50 47 48 46 46 48 48 48 46 35 39 29 40 42 42 43 42 43 42 37 22 29 31 37 38 43 34 33 40 40 39 39 36 34 39 49 49 55 58 60 62 63 64
Lifted_Index
13 13 13 13 14 14 14 15 15 15 14 13 12 12 11 11 10 7 4 3 3 2 1 1 2 2 1 1 1 0 -0 -0 -0 -1 -2 -2 -2 -2 -3 -3 -3 -3 -2 -1 -1
13 13 13 13 13 13 14 14 15 15 15 14 13 12 11 11 9 7 5 3 3 2 1 1 1 1 1 1 1 0 0 0 0 -0 -2 -2 -2 -2 -3 -4 -4 -3 -2 -2 -1
12 13 13 13 13 13 13 14 15 15 15 15 14 13 12 11 9 7 6 5 3 2 2 1 0 1 1 1 1 0 0 1 1 0 -1 -2 -1 -1 -2 -4 -4 -3 -2 -2 -1
12 12 12 12 12 12 13 13 14 15 15 15 14 14 12 10 8 7 7 5 4 3 2 0 0 1 2 1 1 0 1 1 1 1 -0 -1 -1 -1 -2 -3 -4 -3 -2 -2 -2
12 12 12 12 12 12 12 13 14 15 15 15 14 13 12 10 9 8 8 6 5 4 2 1 1 2 2 2 1 0 1 1 1 1 1 -0 -1 -2 -3 -4 -4 -4 -3 -2 -2
11 11 12 12 11 11 12 13 14 14 15 15 14 13 11 10 9 9 9 7 6 4 2 1 1 2 3 3 2 1 1 0 0 0 0 0 -1 -3 -4 -5 -5 -4 -3 -3 -3
11 11 11 11 11 11 11 13 13 14 14 14 13 12 11 10 10 10 9 8 7 4 2 1 2 2 3 3 2 1 1 0 -0 -0 -0 -0 -1 -3 -5 -6 -5 -5 -4 -4 -4
10 11 11 11 10 10 11 12 13 14 14 14 13 11 10 11 11 10 9 8 7 5 3 2 3 3 3 3 2 1 0 0 -0 -0 -0 -0 -1 -2 -4 -6 -5 -5 -4 -4 -4
10 10 10 10 10 10 11 12 13 13 13 13 12 11 10 10 10 9 9 7 6 5 4 3 3 3 3 2 1 1 0 0 -0 -0 -0 -0 -1 -2 -3 -5 -5 -5 -4 -3 -4
10 10 10 10 9 10 11 12 12 12 12 12 11 10 10 10 9 9 9 7 5 4 4 3 3 3 2 2 1 0 0 -0 -0 -0 -1 -1 -1 -2 -3 -4 -4 -4 -3 -3 -3
10 10 10 9 9 9 10 11 10 10 10 10 10 10 10 10 10 9 9 7 5 4 3 3 3 2 2 1 1 1 0 -0 -0 -0 -1 -1 -2 -2 -2 -3 -4 -4 -3 -3 -3
9 10 9 9 8 9 10 9 9 9 9 9 9 9 9 9 9 9 8 7 5 4 3 3 2 1 1 1 1 1 -0 -0 -0 -0 -1 -2 -1 -1 -2 -3 -3 -3 -3 -3 -2
9 9 9 8 8 8 9 8 9 9 8 8 8 8 9 9 9 8 8 6 4 3 3 2 2 1 1 1 1 0 -0 -0 -0 -1 -1 -1 -1 -1 -1 -2 -2 -2 -3 -3 -2
8 9 9 8 7 8 8 8 9 9 7 6 7 8 8 8 8 8 7 6 4 3 3 2 1 1 1 0 0 0 -0 -0 -0 -1 -1 -1 -1 -1 -0 -0 -1 -1 -2 -2 -2
8 8 8 7 7 6 6 7 8 7 4 5 6 7 8 8 7 7 7 6 4 3 3 2 1 1 1 -0 -0 -0 -0 -0 -0 -0 -0 -0 -0 -0 0 0 0 -1 -1 -2 -2
7 7 7 7 6 6 6 6 6 4 3 3 5 6 6 7 7 6 6 5 4 3 3 2 2 2 1 0 -0 0 -0 -0 -0 -0 -0 -0 -0 0 0 0 -0 -0 -1 -2 -3
7 7 6 6 5 5 5 5 4 3 2 3 4 4 5 5 6 6 5 4 4 3 3 2 2 2 1 0 0 0 0 -0 -0 -1 -1 -0 0 0 -0 -0 -1 -1 -1 -2 -3
6 6 6 5 5 5 4 4 2 2 2 2 3 3 4 4 4 4 4 4 4 3 2 2 1 1 0 0 1 1 1 0 -0 -1 -1 -0 0 0 -0 -1 -1 -1 -1 -3 -4
6 5 4 4 5 5 4 3 2 2 2 2 2 2 3 3 4 3 3 3 3 3 2 1 0 0 0 0 0 0 0 0 -0 -0 -0 -0 0 0 0 -0 -1 -1 -2 -3 -4
5 4 3 4 5 5 3 2 1 2 2 2 2 2 2 3 3 3 3 2 2 2 2 2 1 0 0 0 0 0 0 -0 -0 -0 -0 -0 0 1 1 0 -0 -1 -1 -3 -4
4 2 2 3 4 4 3 2 2 2 2 2 2 1 1 2 2 2 2 2 2 2 2 1 1 0 0 0 -0 -0 -0 -0 -0 -0 -0 -0 0 1 1 1 0 -0 -1 -2 -3
3 2 1 3 4 4 4 3 3 2 2 2 1 1 1 1 1 1 1 1 1 1 1 1 0 -0 -0 -0 0 0 0 0 0 -0 -0 0 1 1 1 1 0 -0 -1 -2 -3
3 2 1 3 3 3 4 3 3 2 2 2 1 1 1 0 0 -0 -0 -0 0 0 0 0 0 -0 -0 -0 0 -0 0 0 0 0 0 1 1 1 1 1 -0 -1 -2 -2 -3
3 1 1 1 2 3 3 2 2 2 2 1 1 1 1 0 0 -0 -0 -0 -0 -0 -0 -0 -0 -0 -0 0 0 0 0 0 0 0 1 1 1 0 0 -0 -1 -2 -3 -3 -4
2 1 -0 0 1 1 1 0 0 1 1 1 1 1 1 0 0 0 -0 -0 -0 -1 -0 -0 -0 -0 0 0 0 0 0 -0 -0 -0 0 1 0 -0 -1 -1 -1 -2 -4 -4 -5
2 1 -0 -0 0 1 0 -1 -1 -0 1 1 1 1 0 0 -0 0 0 0 -0 -0 -0 -0 -0 -0 0 0 0 -0 -0 0 -0 -0 -0 0 -0 -1 -2 -2 -3 -4 -5 -5 -5
2 1 0 0 0 1 0 -1 -1 -1 -0 1 0 0 -0 -0 -0 -0 0 0 0 -0 -0 -0 -0 -0 -0 -0 -0 -0 -0 0 -0 -0 -0 0 -0 -1 -2 -3 -4 -5 -6 -6 -5